ARKTIKA-M 1

Last updated on Thu Apr 09 2026 00:02:23 GMT+0000 (Coordinated Universal Time)

1 47719U 21016A 26097.71156402 -.00000124 00000+0 00000+0 0 9994 2 47719 63.2167 67.7774 7259502 269.6087 15.0484 2.00615502 37374
UTC large
Height (km)
Speed (km/s)
/
Latitude / Longitude
Inclination (degrees)
Orbital Period (minutes)
Azimuth
Elevation
Range (km)
Doppler Factor

Next 0 passes for location: London (51.5072 / 0.1276)

Sorry there are no passes over London.
ARKTIKA-M 1